7 * 24
多渠道服务支持
STARLINK-34108是美国SpaceX星链星座的一颗卫星,于2025年10月3日发射入轨。星链项目旨在构建全球卫星互联网星座,为全球偏远地区等提供高速低延迟的互联网接入服务。作为星链大规模组网中的一员,该卫星进一步扩充了星座规模,助力全球卫星互联网覆盖能力提升。
美国
(US)
| 数据来源 | 国际轨道数据 |
| 星历时间: | 2026-09-04T13:51:13+0800 6小时前 查看轨道信息 |
| 半长轴: | 6840.759km |
| 偏心率: | 0.0001587 |
| 轨道倾角: | 53.157° |
| 近地点辐角 | 162.137° |
| 升交点赤经 | 183.345° |
| 平近点角 | 197.969° |
| 近地点: | 461.536km |
| 远地点: | 463.708km |
| 周期: | 93.846分钟 |
| 每日圈数: | 15.344276 |
| 事件ID | 空间交会对象 | 最接近时刻(TCA) | 交会距离 | 交会风险概率(CRP) | 交会风险指数(CRI) | 操作 |
|---|---|---|---|---|---|---|
| CDM_260906-003005-174506-587221 |
STARLINK-3449
(51745)
STARLINK-34108
(65872) | 2026-09-06T 00:30:18+0000 |
0.388 km
远距离 | 1.811864E-4 高风险 | 0.8 | |
| CDM_260906-042405-174506-587221 |
STARLINK-3449
(51745)
STARLINK-34108
(65872) | 2026-09-06T 04:24:47+0000 |
0.533 km
远距离 | 8.405837E-5 中风险 | 0.73 | |
| CDM_260827-221506-042906-587221 |
STARLINK-32242
(60429)
STARLINK-34108
(65872) | 2026-08-27T 22:15:43+0000 |
1.437 km
极远距离 | 4.935694E-6 低风险 | 0.49 |